This is the latest recevied weather packets stored in our database for station/object KC7RJK-2. If no packets are shown the sender has not sent any weather packets the latest 10 day(s).
| Time | Temp. | Humidity | Pressure | Rain* | Wind** | Luminosity | Snow |
|---|---|---|---|---|---|---|---|
| 1777873808 | 15° C | 77% | 1010.1 hPa | 0 mm | - | - | - |
| 1777873208 | 15.56° C | 76% | 1009.9 hPa | 0 mm | - | - | - |
| 1777872614 | 15.56° C | 75% | 1009.7 hPa | 0 mm | - | - | - |
| 1777872012 | 16.11° C | 74% | 1009.5 hPa | 0 mm | - | - | - |
| 1777871409 | 16.67° C | 72% | 1009.3 hPa | 0 mm | - | - | - |
| 1777870809 | 17.22° C | 71% | 1009.1 hPa | 0 mm | - | - | - |
| 1777870208 | 18.33° C | 70% | 1008.9 hPa | 0 mm | - | - | - |
| 1777869612 | 18.89° C | 69% | 1008.7 hPa | 0 mm | - | - | - |
| 1777869013 | 19.44° C | 67% | 1008.4 hPa | 0 mm | - | - | - |
| 1777868410 | 20° C | 66% | 1008.3 hPa | 0 mm | - | - | - |
| 1777867809 | 21.11° C | 66% | 1008 hPa | 0 mm | - | - | - |
| 1777867211 | 21.67° C | 66% | 1007.9 hPa | 0 mm | - | - | - |
| 1777866609 | 22.22° C | 66% | 1007.5 hPa | 0 mm | - | - | - |
| 1777866009 | 22.78° C | 68% | 1007.4 hPa | 0 mm | - | - | - |
| 1777865409 | 22.78° C | 71% | 1007.2 hPa | 0 mm | - | - | - |
| 1777864808 | 23.33° C | 70% | 1007 hPa | 0 mm | - | - | - |
| 1777864208 | 23.33° C | 69% | 1006.9 hPa | 0 mm | - | - | - |
| 1777863612 | 23.89° C | 67% | 1006.9 hPa | 0 mm | - | - | - |
| 1777863011 | 24.44° C | 65% | 1006.8 hPa | 0 mm | - | - | - |
| 1777862410 | 25° C | 63% | 1006.8 hPa | 0 mm | - | - | - |
| 1777861811 | 25.56° C | 60% | 1006.8 hPa | 0 mm | - | - | - |
| 1777861209 | 26.67° C | 57% | 1006.7 hPa | 0 mm | - | - | - |
| 1777860611 | 27.22° C | 55% | 1006.6 hPa | 0 mm | - | - | - |
| 1777860011 | 28.33° C | 52% | 1006.7 hPa | 0 mm | - | - | - |
| 1777859409 | 28.89° C | 50% | 1006.8 hPa | 0 mm | - | - | - |
* Rain latest hour (hover to see other rain measurements)
** Current wind speed in m/s (hover to see current wind gust speed)